Time,TemperatureF,DewpointF,PressureIn,WindDirection,WindDirectionDegrees,WindSpeedMPH,WindSpeedGustMPH,Humidity,HourlyPrecipIn,Conditions,Clouds,dailyrainin,SolarRadiationWatts/m^2,SoftwareType,DateUTC
2013-02-15 00:01:00,59.0,58.0,-100.00,NNE,23,0.0,0.0,95,0.00,,,0.01,0.000000,,2013-02-15 10:01:00,
2013-02-15 00:11:00,59.0,58.0,-100.00,NNE,23,0.0,0.0,95,0.00,,,0.01,0.000000,,2013-02-15 10:11:00,
2013-02-15 00:21:00,59.0,58.0,-100.00,NNE,23,0.0,0.0,95,0.00,,,0.01,0.000000,,2013-02-15 10:21:00,
2013-02-15 00:31:00,59.0,58.0,-100.00,NNE,23,0.0,0.0,95,0.00,,,0.01,0.000000,,2013-02-15 10:31:00,
2013-02-15 01:01:00,59.0,58.0,-100.00,NNE,20,0.0,1.0,96,0.00,,,0.01,0.000000,,2013-02-15 11:01:00,
2013-02-15 01:11:00,59.0,58.0,-100.00,NNE,20,0.0,1.0,96,0.00,,,0.01,0.000000,,2013-02-15 11:11:00,
2013-02-15 01:22:00,59.0,58.0,-100.00,NNE,20,0.0,1.0,96,0.00,,,0.01,0.000000,,2013-02-15 11:22:00,
2013-02-15 01:31:00,59.0,58.0,-100.00,NNE,20,0.0,1.0,96,0.00,,,0.01,0.000000,,2013-02-15 11:31:00,
2013-02-15 01:52:00,59.0,57.0,-100.00,NNE,20,0.0,0.0,93,0.00,,,-99.99,0.000000,,2013-02-15 11:52:00,
2013-02-15 02:01:00,59.0,57.0,-100.00,NNE,20,0.0,0.0,93,0.00,,,-99.99,0.000000,,2013-02-15 12:01:00,
2013-02-15 02:11:00,59.0,57.0,-100.00,NNE,20,0.0,0.0,93,0.00,,,-99.99,0.000000,,2013-02-15 12:11:00,
2013-02-15 02:21:00,59.0,57.0,-100.00,NNE,20,0.0,0.0,93,0.00,,,-99.99,0.000000,,2013-02-15 12:21:00,
2013-02-15 02:31:00,59.0,57.0,-100.00,NNE,20,0.0,0.0,93,0.00,,,-99.99,0.000000,,2013-02-15 12:31:00,
2013-02-15 03:02:00,59.0,58.0,-100.00,NNE,23,0.0,0.0,95,0.00,,,0.01,0.000000,,2013-02-15 13:02:00,
2013-02-15 03:11:00,59.0,58.0,-100.00,NNE,23,0.0,0.0,95,0.00,,,0.01,0.000000,,2013-02-15 13:11:00,
2013-02-15 03:21:00,59.0,58.0,-100.00,NNE,23,0.0,0.0,95,0.00,,,0.01,0.000000,,2013-02-15 13:21:00,
2013-02-15 03:31:00,59.0,58.0,-100.00,NNE,23,0.0,0.0,95,0.00,,,0.01,0.000000,,2013-02-15 13:31:00,
2013-02-15 04:01:00,59.0,57.0,-100.00,NNE,22,0.0,0.0,93,0.00,,,0.01,0.000000,,2013-02-15 14:01:00,
2013-02-15 04:11:00,59.0,57.0,-100.00,NNE,22,0.0,0.0,93,0.00,,,0.01,0.000000,,2013-02-15 14:11:00,
2013-02-15 04:21:00,59.0,57.0,-100.00,NNE,22,0.0,0.0,93,0.00,,,0.01,0.000000,,2013-02-15 14:21:00,
2013-02-15 04:32:00,59.0,57.0,-100.00,NNE,22,0.0,0.0,93,0.00,,,0.01,0.000000,,2013-02-15 14:32:00,
2013-02-15 05:01:00,59.0,58.0,-100.00,NNE,29,0.0,0.0,95,0.00,,,0.01,0.000000,,2013-02-15 15:01:00,
2013-02-15 05:11:00,59.0,58.0,-100.00,NNE,29,0.0,0.0,95,0.00,,,0.01,0.000000,,2013-02-15 15:11:00,
2013-02-15 05:21:00,59.0,58.0,-100.00,NNE,29,0.0,0.0,95,0.00,,,0.01,0.000000,,2013-02-15 15:21:00,
2013-02-15 05:32:00,59.0,58.0,-100.00,NNE,29,0.0,0.0,95,0.00,,,0.01,0.000000,,2013-02-15 15:32:00,
2013-02-15 06:01:00,60.0,55.0,-100.00,NNE,26,0.0,0.0,83,0.00,,,0.01,0.000000,,2013-02-15 16:01:00,
2013-02-15 06:11:00,60.0,55.0,-100.00,NNE,26,0.0,0.0,83,0.00,,,0.01,0.000000,,2013-02-15 16:11:00,
2013-02-15 06:22:00,60.0,55.0,-100.00,NNE,26,0.0,0.0,83,0.00,,,0.01,0.000000,,2013-02-15 16:22:00,
2013-02-15 06:31:00,60.0,55.0,-100.00,NNE,26,0.0,0.0,83,0.00,,,0.01,0.000000,,2013-02-15 16:31:00,
2013-02-15 07:01:00,60.0,56.0,-100.00,NNE,25,0.0,0.0,88,0.00,,,-99.99,0.000000,,2013-02-15 17:01:00,
2013-02-15 07:11:00,60.0,56.0,-100.00,NNE,25,0.0,0.0,88,0.00,,,-99.99,0.000000,,2013-02-15 17:11:00,
2013-02-15 07:21:00,60.0,56.0,-100.00,NNE,25,0.0,0.0,88,0.00,,,-99.99,0.000000,,2013-02-15 17:21:00,
2013-02-15 07:31:00,60.0,56.0,-100.00,NNE,25,0.0,0.0,88,0.00,,,-99.99,0.000000,,2013-02-15 17:31:00,
2013-02-15 08:01:00,60.0,59.0,-100.00,NNE,21,0.0,0.0,97,0.00,,,0.01,0.000000,,2013-02-15 18:01:00,
2013-02-15 08:11:00,60.0,59.0,-100.00,NNE,21,0.0,0.0,97,0.00,,,0.01,0.000000,,2013-02-15 18:11:00,
2013-02-15 08:21:00,60.0,59.0,-100.00,NNE,21,0.0,0.0,97,0.00,,,0.01,0.000000,,2013-02-15 18:21:00,
2013-02-15 08:31:00,60.0,59.0,-100.00,NNE,21,0.0,0.0,97,0.00,,,0.01,0.000000,,2013-02-15 18:31:00,
2013-02-15 09:01:00,60.0,55.0,-100.00,NNE,13,0.0,0.0,84,0.00,,,0.01,0.000000,,2013-02-15 19:01:00,
2013-02-15 09:11:00,60.0,55.0,-100.00,NNE,13,0.0,0.0,84,0.00,,,0.01,0.000000,,2013-02-15 19:11:00,
2013-02-15 09:21:00,60.0,55.0,-100.00,NNE,13,0.0,0.0,84,0.00,,,0.01,0.000000,,2013-02-15 19:21:00,
2013-02-15 09:31:00,60.0,55.0,-100.00,NNE,13,0.0,0.0,84,0.00,,,0.01,0.000000,,2013-02-15 19:31:00,
2013-02-15 10:01:00,60.0,59.0,-100.00,North,8,0.0,0.0,98,0.00,,,-99.99,0.000000,,2013-02-15 20:01:00,
2013-02-15 10:11:00,60.0,59.0,-100.00,North,8,0.0,0.0,98,0.00,,,-99.99,0.000000,,2013-02-15 20:11:00,
2013-02-15 10:21:00,60.0,59.0,-100.00,North,8,0.0,0.0,98,0.00,,,-99.99,0.000000,,2013-02-15 20:21:00,
2013-02-15 10:32:00,60.0,59.0,-100.00,North,8,0.0,0.0,98,0.00,,,-99.99,0.000000,,2013-02-15 20:32:00,
2013-02-15 11:01:00,61.0,60.0,-100.00,NNE,20,0.0,0.0,96,0.00,,,0.01,0.000000,,2013-02-15 21:01:00,
2013-02-15 11:11:00,61.0,60.0,-100.00,NNE,20,0.0,0.0,96,0.00,,,0.01,0.000000,,2013-02-15 21:11:00,
2013-02-15 11:21:00,61.0,60.0,-100.00,NNE,20,0.0,0.0,96,0.00,,,0.01,0.000000,,2013-02-15 21:21:00,
2013-02-15 11:31:00,61.0,60.0,-100.00,NNE,20,0.0,0.0,96,0.00,,,0.01,0.000000,,2013-02-15 21:31:00,
2013-02-15 12:02:00,62.0,59.0,-100.00,NNE,21,0.0,0.0,89,0.00,,,0.01,0.000000,,2013-02-15 22:02:00,
2013-02-15 12:11:00,62.0,59.0,-100.00,NNE,21,0.0,0.0,89,0.00,,,0.01,0.000000,,2013-02-15 22:11:00,
2013-02-15 12:21:00,62.0,59.0,-100.00,NNE,21,0.0,0.0,89,0.00,,,0.01,0.000000,,2013-02-15 22:21:00,
2013-02-15 12:31:00,62.0,59.0,-100.00,NNE,21,0.0,0.0,89,0.00,,,0.01,0.000000,,2013-02-15 22:31:00,
2013-02-15 13:02:00,62.0,60.0,-100.00,NNE,18,0.0,0.0,94,0.00,,,0.01,0.000000,,2013-02-15 23:02:00,
2013-02-15 13:11:00,62.0,60.0,-100.00,NNE,18,0.0,0.0,94,0.00,,,0.01,0.000000,,2013-02-15 23:11:00,
2013-02-15 13:21:00,62.0,60.0,-100.00,NNE,18,0.0,0.0,94,0.00,,,0.01,0.000000,,2013-02-15 23:21:00,
2013-02-15 13:31:00,62.0,60.0,-100.00,NNE,18,0.0,0.0,94,0.00,,,0.01,0.000000,,2013-02-15 23:31:00,
2013-02-15 14:02:00,63.0,60.0,-100.00,NNE,23,0.0,0.0,91,0.00,,,0.01,0.000000,,2013-02-16 00:02:00,
2013-02-15 14:11:00,63.0,60.0,-100.00,NNE,23,0.0,0.0,91,0.00,,,0.01,0.000000,,2013-02-16 00:11:00,
2013-02-15 14:21:00,63.0,60.0,-100.00,NNE,23,0.0,0.0,91,0.00,,,0.01,0.000000,,2013-02-16 00:21:00,
2013-02-15 14:31:00,63.0,60.0,-100.00,NNE,23,0.0,0.0,91,0.00,,,0.01,0.000000,,2013-02-16 00:31:00,
2013-02-15 15:02:00,62.0,60.0,-100.00,NNW,347,0.0,0.0,94,0.00,,,0.01,0.000000,,2013-02-16 01:02:00,
2013-02-15 15:11:00,62.0,60.0,-100.00,NNW,347,0.0,0.0,94,0.00,,,0.01,0.000000,,2013-02-16 01:11:00,
2013-02-15 15:21:00,62.0,60.0,-100.00,NNW,347,0.0,0.0,94,0.00,,,0.01,0.000000,,2013-02-16 01:21:00,
2013-02-15 15:31:00,62.0,60.0,-100.00,NNW,347,0.0,0.0,94,0.00,,,0.01,0.000000,,2013-02-16 01:31:00,
2013-02-15 16:01:00,62.0,61.0,-100.00,North,7,0.0,0.0,98,0.00,,,0.01,0.000000,,2013-02-16 02:01:00,
2013-02-15 16:11:00,62.0,61.0,-100.00,North,7,0.0,0.0,98,0.00,,,0.01,0.000000,,2013-02-16 02:11:00,
2013-02-15 16:21:00,62.0,61.0,-100.00,North,7,0.0,0.0,98,0.00,,,0.01,0.000000,,2013-02-16 02:21:00,
2013-02-15 16:31:00,62.0,61.0,-100.00,North,7,0.0,0.0,98,0.00,,,0.01,0.000000,,2013-02-16 02:31:00,
2013-02-15 17:01:00,62.0,62.0,-100.00,NNE,17,0.0,0.0,99,0.00,,,0.01,0.000000,,2013-02-16 03:01:00,
2013-02-15 17:11:00,62.0,62.0,-100.00,NNE,17,0.0,0.0,99,0.00,,,0.01,0.000000,,2013-02-16 03:11:00,
2013-02-15 17:21:00,62.0,62.0,-100.00,NNE,17,0.0,0.0,99,0.00,,,0.01,0.000000,,2013-02-16 03:21:00,
2013-02-15 17:31:00,62.0,62.0,-100.00,NNE,17,0.0,0.0,99,0.00,,,0.01,0.000000,,2013-02-16 03:31:00,
2013-02-15 18:01:00,62.0,62.0,-100.00,NNE,23,0.0,0.0,99,0.01,,,0.02,0.000000,,2013-02-16 04:01:00,
2013-02-15 18:11:00,62.0,62.0,-100.00,NNE,23,0.0,0.0,99,0.01,,,0.02,0.000000,,2013-02-16 04:11:00,
2013-02-15 18:21:00,62.0,62.0,-100.00,NNE,23,0.0,0.0,99,0.01,,,0.02,0.000000,,2013-02-16 04:21:00,
2013-02-15 18:31:00,62.0,62.0,-100.00,NNE,23,0.0,0.0,99,0.01,,,0.02,0.000000,,2013-02-16 04:31:00,
2013-02-15 19:01:00,62.0,62.0,-100.00,North,11,0.0,0.0,99,0.00,,,0.01,0.000000,,2013-02-16 05:01:00,
2013-02-15 19:11:00,62.0,62.0,-100.00,North,11,0.0,0.0,99,0.00,,,0.01,0.000000,,2013-02-16 05:11:00,
2013-02-15 19:21:00,62.0,62.0,-100.00,North,11,0.0,0.0,99,0.00,,,0.01,0.000000,,2013-02-16 05:21:00,
2013-02-15 19:31:00,62.0,62.0,-100.00,North,11,0.0,0.0,99,0.00,,,0.01,0.000000,,2013-02-16 05:31:00,
2013-02-15 20:01:00,62.0,62.0,-100.00,NNE,18,0.0,0.0,99,0.00,,,0.01,0.000000,,2013-02-16 06:01:00,
2013-02-15 20:11:00,62.0,62.0,-100.00,NNE,18,0.0,0.0,99,0.00,,,0.01,0.000000,,2013-02-16 06:11:00,
2013-02-15 20:21:00,62.0,62.0,-100.00,NNE,18,0.0,0.0,99,0.00,,,0.01,0.000000,,2013-02-16 06:21:00,
2013-02-15 20:32:00,62.0,62.0,-100.00,NNE,18,0.0,0.0,99,0.00,,,0.01,0.000000,,2013-02-16 06:32:00,
2013-02-15 21:02:00,62.0,62.0,-100.00,NNW,343,0.0,0.0,100,0.00,,,0.01,0.000000,,2013-02-16 07:02:00,
2013-02-15 21:11:00,62.0,62.0,-100.00,NNW,343,0.0,0.0,100,0.00,,,0.01,0.000000,,2013-02-16 07:11:00,
2013-02-15 21:21:00,62.0,62.0,-100.00,NNW,343,0.0,0.0,100,0.00,,,0.01,0.000000,,2013-02-16 07:21:00,
2013-02-15 21:31:00,62.0,62.0,-100.00,NNW,343,0.0,0.0,100,0.00,,,0.01,0.000000,,2013-02-16 07:31:00,
2013-02-15 22:01:00,62.0,62.0,-100.00,NNE,23,0.0,0.0,100,0.00,,,0.01,0.000000,,2013-02-16 08:01:00,
2013-02-15 22:11:00,62.0,62.0,-100.00,NNE,23,0.0,0.0,100,0.00,,,0.01,0.000000,,2013-02-16 08:11:00,
2013-02-15 22:21:00,62.0,62.0,-100.00,NNE,23,0.0,0.0,100,0.00,,,0.01,0.000000,,2013-02-16 08:21:00,
2013-02-15 22:31:00,62.0,62.0,-100.00,NNE,23,0.0,0.0,100,0.00,,,0.01,0.000000,,2013-02-16 08:31:00,
2013-02-15 23:01:00,62.0,62.0,-100.00,NNE,19,0.0,0.0,100,0.02,,,0.03,0.000000,,2013-02-16 09:01:00,
2013-02-15 23:11:00,62.0,62.0,-100.00,NNE,19,0.0,0.0,100,0.02,,,0.03,0.000000,,2013-02-16 09:11:00,
2013-02-15 23:21:00,62.0,62.0,-100.00,NNE,19,0.0,0.0,100,0.02,,,0.03,0.000000,,2013-02-16 09:21:00,
2013-02-15 23:31:00,62.0,62.0,-100.00,NNE,19,0.0,0.0,100,0.02,,,0.03,0.000000,,2013-02-16 09:31:00,